Regional Weather Roundup
Issued by NWS Albany, NY

Home | Current Version | Previous Version | Text Only | Print | Product List | Glossary On
Versions: 1 2 3 4 5 6 7 8 9 10 11 12 13 14 15 16 17 18 19 20 21 22 23 24 25 26 27 28 29 30 31 32 33 34 35 36 37 38 39 40 41 42 43 44 45 46 47 48 49 50
000
ASUS41 KALY 261710
RWRALY

NEW YORK STATE HOURLY WEATHER ROUNDUP
NATIONAL WEATHER SERVICE ALBANY NY
100 PM EDT TUE MAY 26 2015

NOTE: "FAIR" INDICATES FEW OR NO CLOUDS BELOW 12,000 FEET WITH NO
SIGNIFICANT WEATHER AND/OR NO OBSTRUCTIONS TO VISIBILITY.

NYZ032-033-038>043-046>054-057>066-NYZ062>081-261800-
EAST


CITY           SKY/WX    TMP DP  RH WIND       PRES   REMARKS
ALBANY         PTSUNNY   85  63  47 S13       30.12F
GLENS FALLS    PTSUNNY   85  61  44 SW13G18   30.08
POUGHKEEPSIE   PTSUNNY   85  63  47 SW7       30.15F
MONTGOMERY     MOSUNNY   85  67  54 MISG      30.16F
WHITE PLAINS   MOSUNNY   83  60  45 S9        30.19F
ISLIP          PTSUNNY   75  61  61 S13       30.21S
NEW YORK CITY  PTSUNNY   84  60  44 S9        30.19S
CENTRAL PARK   SUNNY     85  61  44 MISG      30.21F
$$

NYZ005>009-017-018-044>046-055-056-261800-
CENTRAL


CITY           SKY/WX    TMP DP  RH WIND       PRES   REMARKS
FULTON         PTSUNNY   83  65  54 SW9G17    30.10F
SYRACUSE       CLOUDY    82  64  54 SW10      30.11S
ROME           MOSUNNY   82  63  52 W13       30.12F
ELMIRA         LGT RAIN  77  66  68 SW10      30.16F
BINGHAMTON     PTSUNNY   76  62  62 W9G16     30.20R
MONTICELLO     PTSUNNY   79  63  57 W6        30.22S
$$

NYZ026>034-041>043-261800-
NORTH


CITY           SKY/WX    TMP DP  RH WIND       PRES   REMARKS
WATERTOWN      SUNNY     78  64  61 W12G18    30.08F
FORT DRUM      NOT AVBL
MASSENA        MOSUNNY   82  64  54 SW16G24   30.03S
SARANAC LAKE   MOSUNNY   78  59  51 SW16G25   30.11R
PLATTSBURGH    MOSUNNY   84  59  42 W10G20    30.02F
$$

NYZ001>004-010>016-019>021-261800-
WEST


CITY           SKY/WX    TMP DP  RH WIND       PRES   REMARKS
NIAGARA FALLS  CLOUDY    79  63  57 S15G24    30.08F
BUFFALO        PTSUNNY   77  64  64 SW14      30.10F
DUNKIRK        CLOUDY    75  64  68 W6        30.11F
JAMESTOWN      CLOUDY    73  63  68 S14G21    30.16F
WELLSVILLE     PTSUNNY   73  62  68 SW8       30.22F
ROCHESTER      PTSUNNY   79  64  60 S14       30.11S
PENN YAN       CLOUDY    75  64  68 S9        30.16S
$$

             KEY
       WCI = WIND CHILL INDEX
       VSB = VISIBILITY
       HX  = HEAT INDEX
$$



USA.gov is the U.S. government's official web portal to all federal, state and local government web resources and services.